Regional Weather Roundup
Issued by NWS

Home | Current Version | Previous Version | Text Only | Print | Product List | Glossary On
Versions: 1 2 3 4 5 6 7 8 9 10 11 12 13 14 15 16 17 18 19 20 21 22 23 24 25 26 27 28 29 30 31 32 33 34 35 36 37 38 39 40 41 42 43 44 45 46 47 48 49 50
000
ASUS43 KMPX 210110
RWRMN
WEATHER ROUNDUP FOR MINNESOTA
NATIONAL WEATHER SERVICE TWIN CITIES/CHANHASSEN MN
800 PM CDT MON OCT 20 2014


NOTE: "FAIR" INDICATES FEW OR NO CLOUDS BELOW 12,000 FEET WITH NO
SIGNIFICANT WEATHER AND/OR OBSTRUCTIONS TO VISIBILITY. N/A MEANS
CURRENT SKY AND/OR WEATHER CONDITIONS ARE NOT AVAILABLE.

MNZ060>063-068>070-210200-
   Twin Cities Metro

CITY           SKY/WX    TMP DP  RH WIND       PRES   REMARKS
TWIN CITIES    CLEAR     53  39  59 N3        30.04R
ST PAUL        CLEAR     53  40  61 N5        30.05R
CRYSTAL        CLEAR     52  39  61 NE5       30.04R
BLAINE         CLEAR     52  41  66 NE6       30.04R
LAKEVILLE      CLEAR     52  39  62 N5        30.04R
EDEN PRAIRIE   CLEAR     54  39  57 NE7       30.03R
SOUTH ST PAUL  CLEAR     55  40  57 N3        30.04R
LAKE ELMO      FAIR      50  41  71 NE5       30.05R
$$
MNZ001>005-007-008-013>017-022>024-027-028-210200-
   Northwest Minnesota

CITY           SKY/WX    TMP DP  RH WIND       PRES   REMARKS
BEMIDJI        CLEAR     39  36  89 NE5       30.07S
HALLOCK        CLEAR     46  37  71 E8        30.04S
ROSEAU         CLEAR     43  37  81 E7        30.07S
WARROAD        CLEAR     43  37  81 E7        30.09R
THIEF RVR FALL CLEAR     46  37  71 E8        30.06S
CROOKSTON      CLEAR     50  37  62 E3        30.05S
FOSSTON        CLEAR     43  32  65 E5        30.07R
DETROIT LAKES  CLEAR     50  39  66 CALM      30.06R
MOORHEAD       CLEAR     50  41  71 CALM      30.05S
PARK RAPIDS    CLEAR     48  39  71 NE8       30.06R
MAHNOMEN       FAIR      45  36  70 E6        30.04S
$$
MNZ006-009>011-018-025>026-210200-
   North Central Minnesota

CITY           SKY/WX    TMP DP  RH WIND       PRES   REMARKS
BAUDETTE       CLEAR     39  35  86 NE3       30.09S
FLAG ISLAND    CLEAR     45  36  70 E5        30.08S
INTL FALLS     CLOUDY    45  36  70 NE5       30.10R
WASKISH        CLEAR     34  32  93 CALM      30.09S
BIG FORK       CLOUDY    45  37  76 NE5       30.10R
LONGVILLE      CLEAR     43  37  81 CALM      30.07S
GRAND RAPIDS   CLOUDY    43  36  75 N5        30.08S
CRANE LAKE     CLOUDY    43  36  75 NE3       30.11S
ORR            CLOUDY    45  34  65 CALM      30.07S
COOK           CLOUDY    45  37  76 N3        30.09S
WALKER         FAIR      43  38  84 E5        30.07S
$$
MNZ012-019>021-037-210200-
   Northeast Minnesota

CITY           SKY/WX    TMP DP  RH WIND       PRES   REMARKS
DULUTH         CLOUDY    47  36  65 N3        30.08R
ELY            CLOUDY    43  36  75 CALM      30.08S
HIBBING        CLOUDY    46  35  65 N3        30.09R
EVELETH        MOCLDY    45  34  65 CALM      30.09S
DULUTH HARBOR  CLOUDY    50  39  66 NW9       30.09R
TWO HARBORS    CLOUDY    50  27  40 N3        30.06R
SILVER BAY     CLEAR     48  36  61 NW5       30.06R
GRAND MARAIS     N/A     47  36  65 NE6       30.09R
G MARAIS ARPRT MOCLDY    37  32  81 N7        30.07R
$$
MNZ029>031-032-039>041-046>048-054>057-064-210200-
   West Central Minnesota

CITY           SKY/WX    TMP DP  RH WIND       PRES   REMARKS
FERGUS FALLS   CLEAR     52  34  50 CALM      30.05S
WHEATON        CLEAR     50  37  62 CALM      30.06R
MORRIS         CLEAR     50  37  62 NE6       30.03S
ALEXANDRIA     CLEAR     53  37  54 N5        30.05S
ELBOW LAKE     FAIR      47  41  79 NE3       30.04S
WADENA         CLEAR     45  36  70 CALM      30.04S
GLENWOOD       CLEAR     52  37  58 N5        30.05S
APPLETON       CLEAR     48  37  66 CALM      30.03S HAZE
BENSON         CLEAR     48  39  71 CALM      30.04S
ORTONVILLE     CLEAR     54  39  58 NE6       30.03S
MADISON        CLEAR     50  37  62 NE6       30.03F
WILLMAR        FAIR      54  37  54 CALM      30.05S
$$
MNZ033>034-036-042>043-049>051-058-059-210200-
   Central Minnesota

CITY           SKY/WX    TMP DP  RH WIND       PRES   REMARKS
ST CLOUD       FAIR      53  39  59 E3        30.05R
SAUK CENTRE    FAIR      47  37  68 CALM      30.05R
PAYNESVILLE    CLEAR     45  37  73 CALM      30.05R
AITKIN         CLEAR     43  36  75 CALM      30.06S
PINE RIVER     CLEAR     46  39  76 NE5       30.10R
BRAINERD       CLEAR     45  38  76 NE6       30.07R
STAPLES        CLEAR     48  36  61 CALM      30.05R
LONG PRAIRIE   FAIR      48  36  61 CALM      30.05R
LITTLE FALLS   CLEAR     48  37  66 CALM      30.05S
LITCHFIELD     FAIR      52  39  62 CALM      30.04S
BUFFALO        CLEAR     49  39  67 NE3       30.05R
MAPLE LAKE     CLEAR     51  42  69 NE3       30.05R
$$
MNZ037-044-045-052-053-210200-
   East Central Minnesota

CITY           SKY/WX    TMP DP  RH WIND       PRES   REMARKS
PRINCETON      CLEAR     50  39  66 NE5       30.06R
MORA           CLEAR     45  37  76 CALM      30.08R
CAMBRIDGE      CLEAR     50  37  62 NE5       30.05R
RUSH CITY      MOCLDY    45  38  76 NE3       30.07R
MOOSE LAKE     CLOUDY    46  37  71 CALM      30.06R
HINCKLEY       FAIR      45  37  76 CALM      30.07R
CLOQUET        CLOUDY    46  37  71 NE3       30.08R
MCGREGOR       CLEAR     43  37  81 NE5       30.08R
$$
MNZ071>073-080-081-089-090-097-098-210200-
   Southwest Minnesota

CITY           SKY/WX    TMP DP  RH WIND       PRES   REMARKS
MONTEVIDEO     CLEAR     52  37  58 NE3       30.04F
GRANITE FALLS  CLEAR     50  37  60 CALM      30.05S
CANBY          CLEAR     51  40  67 CALM      30.05R
MARSHALL       CLEAR     55  36  47 NE3       30.03S
REDWOOD FALLS  CLEAR     58  39  49 NW5       30.03S
OLIVIA         CLEAR     52  37  58 N5        30.03S
PIPESTONE      CLEAR     55  36  47 CALM      30.04S
WINDOM         CLEAR     48  37  66 N3        30.04S
WORTHINGTON    CLEAR     48  34  57 N3        30.06R
JACKSON        CLEAR     50  36  57 CALM      30.05R
TRACY          CLEAR     51  38  60 CALM      30.04S
SLAYTON        CLEAR     53  34  49 CALM      30.05S
$$
MNZ065>067-074>077-082>085-091>093-210200-
   South Central Minnesota

CITY           SKY/WX    TMP DP  RH WIND       PRES   REMARKS
MANKATO        CLEAR     54  34  47 N6        30.03S
NEW ULM        CLEAR     55  39  54 N3        30.03S
ST JAMES       CLEAR     52  37  58 NW3       30.05R
FAIRMONT       CLEAR     52  36  54 NW3       30.03S
GLENCOE        CLEAR     51  39  63 CALM      30.03S
FARIBAULT      CLEAR     43  37  81 N3        30.04R
OWATONNA       CLEAR     43  36  75 CALM      30.03R
WASECA         CLEAR     45  32  61 N5        30.05R
ALBERT LEA     CLEAR     52  39  62 NW5       30.03R
$$
MNZ078>079-086>088-094>096-210200-
   Southeast Minnesota

CITY           SKY/WX    TMP DP  RH WIND       PRES   REMARKS
ROCHESTER      CLEAR     51  40  65 N8        30.03R
RED WING       CLEAR     54  39  58 NE6       30.03R
STANTON        CLEAR     50  39  67 NE7       30.03R
DODGE CENTER   CLEAR     50  41  71 N6        30.03R
WINONA         CLEAR     54  41  62 NE5       30.04R
AUSTIN         CLEAR     52  39  62 N3        30.02R
PRESTON        CLEAR     50  40  70 N6        30.03R
$$
ABBREVIATIONS USED IN REMARKS
   TC - TEMPERATURES IN CELSIUS
  WCI - WIND CHILL INDEX
   HX - HEAT INDEX
  VSB - VISIBILITY
$$



USA.gov is the U.S. government's official web portal to all federal, state and local government web resources and services.